STARLINK-11206, 60312

Orbit data source: Space-Track

STARLINK-11206, 60312 is a payload satellite owned by SpaceX/Seattle (US) in LEO that was launched on Sun, 28 Jul 2024 UTC via an FALCON 9 launch vehicle from the Air Force Western Test Range (AFWTR). Payload-class satellites include a variety of spacecraft equipped with specific instruments for various scientific and technological missions. These include communications satellites like Starlink; space stations such as the ISS; scientific satellites like the Hubble; Earth observation satellites from companies like Planet Labs, Umbra, and HawkEye 360; GPS; miniature CubeSats for education and research; and military/defense satellites.

Not visible in the next 10 days
Identifier
60312, 2024-133M
Orbit
LEO
Country
Flag of USUS
Related business
Manufacturer
SpaceX/Seattle
Mission
Operational Commercial Communications
Bus & Motor
STARLINK V2MD, Unknown motor
Mass
960 kg wet, ~910 kg dry
Launch date (UTC)
2024-07-28 (2 years ago)
Launch vehicle
FALCON 9
Launch site
Air Force Western Test Range (AFWTR)
Object type
Payload
Rocket body
Debris
Shape & HBR
Box + 2 Pan, 18.1 m
Radar Cross Section
36.964 m², Large (>1 m²)

Expand to show TLE details & history
Last TLE update: 1 day ago

TLE from 1 day ago
0 STARLINK-11206
1 60312U 24133M   26170.84098974 -.00000080  00000-0  41912-5 0  9991
2 60312  53.1588   2.9767 0000761  89.9107 270.1998 15.69714861109771
Epoch: 2026-06-19T20:11Z
TLE epoch observation values (Epoch: 2026-06-19T20:11:01.513Z)
Latitude
-0.00003°
Longitude
152.15619°
Altitude
360.626 km
Speed
7.694 km/s
True Right ascension
00h 11m 54s
True Declination
0° 00' 00"
Sunlit
Object was in daylight at epoch
Visualization orbit readout
Latitude
Unknown
Longitude
Unknown
Altitude
Unknown
Speed
Unknown
Apparent Right ascension
Unknown
Apparent Declination
Unknown
Sunlit
N/A
Visualization observer readout
Local Sidereal Time
07:17:24
Azimuth
Unknown
Elevation
Unknown
Doppler factor
Unknown
Orbital elements
Apogee altitude
360.486 km
Perigee altitude
359.461 km
Semi-major axis
6,738.111 km
Eccentricity
0.00008
Inclination
53.1588°
RAAN
2.9767°
Arg. of periapsis
89.9107°
True anomaly
270.19108°
Mean anomaly
270.1998°
Eccentric anomaly
270.19544°
Mean motion
3.92406 °/min
Orbital period
91.74 mins
BSTAR
0.0000041912
Loading maneuver chart data...
Computing Atmospheric mass density...
Loading historical data...
Loading historical data...
Loading historical data...
Loading historical data...
Loading historical data...
Loading historical data...
Loading historical data...

Documentation

Showing up to 5 results
|